Weather History for Menomonie, WI

Change the Weather History Date:

Thursday, September 13, 2012

  Actual Average (KEAU) Record (KEAU)
Temperature  
Mean Temperature 60 °F 61 °F  
Max Temperature 71 °F 73 °F 95 °F (1939)
Min Temperature 50 °F 50 °F 29 °F (1963)
Degree Days  
Heating Degree Days 4 5  
Month to date heating degree days 47  
Since 1 July heating degree days 86  
Cooling Degree Days 0 2  
Month to date cooling degree days 33  
Year to date cooling degree days 560  
Growing Degree Days 10 (Base 50)    
Moisture  
Dew Point 40 °F    
Average Humidity 59    
Maximum Humidity 94    
Minimum Humidity 16    
Precipitation  
Precipitation 0.00 in 0.12 in 2.99 in (1909)
Month to date precipitation 1.64  
Year to date precipitation 23.76  
Snow  
Snow 0.00 in 0.00 in 0.00 in ()
Month to date snowfall 0.0  
Since 1 July snowfall 0.0  
Since 1 September snowfall 0.0  
Snow Depth -    
Sea Level Pressure  
Sea Level Pressure 30.29 in    
Wind  
Wind Speed 4 mph (WSW)    
Max Wind Speed 15 mph    
Max Gust Speed 25 mph    
Visibility 10 miles    
Events Rain    
T = Trace of Precipitation, MM = Missing Value Source: NWS Daily Summary

Daily Weather History Graph

Daily Weather History Graph

Search for Another Location

Airport:

Trip Planner

Search our weather history database for the weather conditions in past years. The results will help you decide how hot, cold, wet, or windy it might be!

Date:

Astronomy

Sep. 13, 2012 Rise Set
Actual Time 6:44 AM CDT 7:21 PM CDT
Civil Twilight 6:14 AM CDT 7:50 PM CDT
Nautical Twilight 5:39 AM CDT 8:25 PM CDT
Astronomical Twilight 5:03 AM CDT 9:01 PM CDT
Moon 3:59 AM CDT (9/13) 5:47 PM CDT (9/13)
Length of Visible Light 13h 35m
Length of Day
12h 36m
Waning Crescent, 7% of the Moon is Illuminated
Sep 13
Waning Crescent
Sep 15
New
Sep 22
First Quarter
Sep 29
Full
Oct 8
Last Quarter

Hourly Weather History & Observations

Time (CDT) Temp. Dew Point Humidity Pressure Visibility Wind Dir Wind Speed Gust Speed Precip Events Conditions
12:15 AM 53.6 °F 50.0 °F 88% 30.25 in 10.0 mi SSW 3.5 mph - N/A   Clear
12:55 AM 53.6 °F 50.0 °F 88% 30.25 in 10.0 mi South 3.5 mph - N/A   Clear
1:15 AM 53.6 °F 50.0 °F 88% 30.27 in 10.0 mi SSW 3.5 mph - N/A   Scattered Clouds
1:35 AM 53.6 °F 50.0 °F 88% 30.28 in 10.0 mi SSW 4.6 mph - N/A   Scattered Clouds
1:55 AM 53.6 °F 50.0 °F 88% 30.28 in 10.0 mi SSW 4.6 mph - N/A   Mostly Cloudy
2:15 AM 53.6 °F 51.8 °F 94% 30.29 in 10.0 mi SW 3.5 mph - N/A Rain Light Rain
2:35 AM 53.6 °F 51.8 °F 94% 30.29 in 10.0 mi Calm Calm - N/A   Overcast
3:15 AM 53.6 °F 51.8 °F 94% 30.28 in 10.0 mi Calm Calm - N/A   Overcast
3:55 AM 53.6 °F 50.0 °F 88% 30.27 in 10.0 mi SSW 3.5 mph - N/A   Overcast
4:15 AM 53.6 °F 50.0 °F 88% 30.27 in 10.0 mi SW 3.5 mph - N/A   Overcast
4:35 AM 53.6 °F 50.0 °F 88% 30.27 in 10.0 mi SW 3.5 mph - N/A   Mostly Cloudy
4:55 AM 53.6 °F 50.0 °F 88% 30.26 in 10.0 mi SSW 5.8 mph - N/A   Scattered Clouds
5:15 AM 53.6 °F 50.0 °F 88% 30.26 in 10.0 mi SSW 3.5 mph - N/A   Clear
5:35 AM 51.8 °F 50.0 °F 94% 30.26 in 10.0 mi SSW 3.5 mph - N/A   Clear
5:55 AM 51.8 °F 50.0 °F 94% 30.27 in 10.0 mi SW 4.6 mph - N/A   Clear
6:15 AM 51.8 °F 50.0 °F 94% 30.27 in 10.0 mi Calm Calm - N/A   Clear
6:35 AM 51.8 °F 50.0 °F 94% 30.28 in 10.0 mi SW 3.5 mph - N/A   Clear
6:55 AM 51.8 °F 50.0 °F 94% 30.28 in 10.0 mi SW 3.5 mph - N/A   Clear
7:15 AM 51.8 °F 50.0 °F 94% 30.29 in 10.0 mi Calm Calm - N/A   Clear
7:35 AM 51.8 °F 50.0 °F 94% 30.30 in 10.0 mi WSW 4.6 mph - N/A   Clear
7:55 AM 53.6 °F 50.0 °F 88% 30.29 in 10.0 mi SW 3.5 mph - N/A   Clear
8:55 AM 53.6 °F 51.8 °F 94% 30.31 in 10.0 mi WSW 4.6 mph - N/A   Clear
9:15 AM 53.6 °F 51.8 °F 94% 30.32 in 10.0 mi SW 4.6 mph - N/A   Clear
9:35 AM 55.4 °F 51.8 °F 88% 30.32 in 10.0 mi SW 5.8 mph - N/A   Clear
9:55 AM 55.4 °F 51.8 °F 88% 30.33 in 10.0 mi WSW 4.6 mph - N/A   Clear
10:15 AM 59.0 °F 51.8 °F 77% 30.33 in 10.0 mi Calm Calm - N/A   Clear
10:35 AM 59.0 °F 50.0 °F 72% 30.33 in 10.0 mi Calm Calm - N/A   Clear
10:55 AM 60.8 °F 50.0 °F 68% 30.34 in 10.0 mi West 3.5 mph - N/A   Clear
11:15 AM 62.6 °F 50.0 °F 63% 30.33 in 10.0 mi Calm Calm - N/A   Clear
11:35 AM 62.6 °F 46.4 °F 55% 30.33 in 10.0 mi WSW 4.6 mph - N/A   Clear
12:15 PM 64.4 °F 42.8 °F 45% 30.33 in 10.0 mi West 4.6 mph - N/A   Clear
12:35 PM 66.2 °F 41.0 °F 40% 30.32 in 10.0 mi SW 3.5 mph - N/A   Clear
12:55 PM 68.0 °F 37.4 °F 33% 30.32 in 10.0 mi West 4.6 mph - N/A   Clear
1:15 PM 69.8 °F 33.8 °F 27% 30.31 in 10.0 mi WSW 9.2 mph - N/A   Clear
1:35 PM 69.8 °F 28.4 °F 21% 30.30 in 10.0 mi NW 13.8 mph 19.6 mph N/A   Clear
1:55 PM 71.6 °F 28.4 °F 20% 30.30 in 10.0 mi WNW 13.8 mph 25.3 mph N/A   Scattered Clouds
2:15 PM 71.6 °F 26.6 °F 19% 30.29 in 10.0 mi WNW 10.4 mph 18.4 mph N/A   Clear
2:35 PM 71.6 °F 26.6 °F 19% 30.29 in 10.0 mi West 10.4 mph 18.4 mph N/A   Clear
2:55 PM 71.6 °F 24.8 °F 17% 30.29 in 10.0 mi NW 10.4 mph 19.6 mph N/A   Clear
3:15 PM 71.6 °F 23.0 °F 16% 30.28 in 10.0 mi NW 9.2 mph 19.6 mph N/A   Clear
3:35 PM 71.6 °F 24.8 °F 17% 30.28 in 10.0 mi West 11.5 mph - N/A   Clear
3:55 PM 71.6 °F 26.6 °F 19% 30.28 in 10.0 mi WNW 11.5 mph 18.4 mph N/A   Clear
4:15 PM 71.6 °F 26.6 °F 19% 30.28 in 10.0 mi West 15.0 mph 21.9 mph N/A   Clear
4:35 PM 71.6 °F 26.6 °F 19% 30.28 in 10.0 mi West 10.4 mph 18.4 mph N/A   Clear
4:55 PM 71.6 °F 26.6 °F 19% 30.27 in 10.0 mi NW 12.7 mph 16.1 mph N/A   Clear
5:15 PM 71.6 °F 23.0 °F 16% 30.27 in 10.0 mi West 12.7 mph 20.7 mph N/A   Clear
5:35 PM 71.6 °F 23.0 °F 16% 30.27 in 10.0 mi NW 11.5 mph 18.4 mph N/A   Clear
5:55 PM 69.8 °F 23.0 °F 17% 30.26 in 10.0 mi NW 9.2 mph 16.1 mph N/A   Clear
6:15 PM 69.8 °F 24.8 °F 18% 30.26 in 10.0 mi West 9.2 mph - N/A   Clear
6:35 PM 69.8 °F 24.8 °F 18% 30.27 in 10.0 mi NW 8.1 mph - N/A   Clear
6:55 PM 68.0 °F 26.6 °F 21% 30.27 in 10.0 mi NW 6.9 mph - N/A   Clear
7:15 PM 66.2 °F 26.6 °F 23% 30.27 in 10.0 mi NW 3.5 mph - N/A   Clear
8:15 PM 57.2 °F 33.8 °F 41% 30.28 in 10.0 mi Calm Calm - N/A   Clear
8:35 PM 55.4 °F 35.6 °F 47% 30.29 in 10.0 mi Calm Calm - N/A   Clear
8:55 PM 55.4 °F 33.8 °F 44% 30.29 in 10.0 mi Calm Calm - N/A   Clear
9:15 PM 55.4 °F 39.2 °F 54% 30.29 in 10.0 mi Calm Calm - N/A   Clear
9:35 PM 53.6 °F 37.4 °F 54% 30.30 in 10.0 mi North 3.5 mph - N/A   Clear
9:55 PM 51.8 °F 37.4 °F 58% 30.30 in 10.0 mi Calm Calm - N/A   Clear
10:15 PM 51.8 °F 37.4 °F 58% 30.30 in 10.0 mi Calm Calm - N/A   Clear
10:35 PM 50.0 °F 37.4 °F 62% 30.30 in 10.0 mi Calm Calm - N/A   Clear
10:55 PM 50.0 °F 42.8 °F 76% 30.30 in 10.0 mi Calm Calm - N/A   Clear
11:15 PM 50.0 °F 39.2 °F 66% 30.30 in 10.0 mi Calm Calm - N/A   Clear
11:35 PM 50.0 °F 41.0 °F 71% 30.30 in 10.0 mi Calm Calm - N/A   Clear